Location: Newark
(13.0328°N, 9.6142°E)
Time: 07:12:30
(UTC+00:00)

Envisat - Pass Details

Date: 31 October 2019
Orbit: 764 x 766 km, 98.1° (Epoch: 14 November)

Event Time Altitude Azimuth Distance (km) Brightness Sun altitude
Rises 17:12:12 0° 151° (SSE) 3,222 6.1 -4.8°
Reaches altitude 10° 17:14:39 10° 143° (SE) 2,296 5.2 -5.4°
Maximum altitude 17:19:17 37° 76° (ENE) 1,168 3.5 -6.5°
Drops below altitude 10° 17:23:55 10° 10° (N) 2,296 5.3 -7.6°
Sets 17:26:22 0° 2° (N) 3,222 6.1 -8.2°
